Location: Limerick
(52.6650°N, 8.6230°W)
Time: 17:16:11
(UTC+00:00)

ISS - Pass Details

Date: 22 May 2017
Orbit: 403 x 406 km, 51.6° (Epoch: 15 December)

Event Time Altitude Azimuth Distance (km) Brightness Sun altitude
Exits shadow 01:12:57 49° 174° (S) 549 -3.6 -16.8°
Drops below altitude 10° 01:16:23 10° 86° (E) 1,496 -1.0 -16.9°
Enters shadow 02:29:50 -34° 267° (W) 7,912 2.6 -15.8°
Maximum altitude 02:49:40 76° 182° (S) 434 -3.9 -15.0°
